sat.trackr.live / text

‹ back to catalog

STARLINK-37048

NORAD 68155 · 2026-049P

PAYLOAD ACTIVE UNKNOWN

§ Identity

Operator
Country
US
Launch date
2026-03-13
Launch site
AFWTR
Launch vehicle
Mass (kg)
RCS (m²)

Purposes: comms

External: N2YO · Heavens-Above · Gunter

§ Orbital elements

Epoch: 2026-05-25T01:02:24.281376Z

Period
93.91 min
Inclination
97.2842°
Eccentricity
0.0001562
Mean motion
15.33450681 rev/d
Perigee alt
464.5 km
Apogee alt
466.6 km
Semi-major
6,843.7 km
B*
5.1242e-4
RAAN
166.6248°
Arg perigee
77.4634°
Mean anomaly
282.6783°
Rev number
1,134

§ Raw data

STARLINK-370481 68155U 26049P   26145.04333659  .00016507  00000+0  51242-3 0  99922 68155  97.2842 166.6248 0001562  77.4634 282.6783 15.33450681 11348

JSON: /api/v1/satellites/68155 · /tle

For live sub-satellite position, see the globe view (requires WebGL).

§ Visibility from observer

Set your observer location to see the next 7 days of passes ≥ 10°. The values pass through the URL so the page stays shareable.

No JS? Fill the form by hand. The geolocation button needs JavaScript.